AirNav   Everest Fuels
 
 1067 users online  

9NJ5 Stallone Airport
Harrisonville, New Jersey, USA

GOING TO HARRISONVILLE?


FAA INFORMATION EFFECTIVE 16 JULY 2020

Location

FAA Identifier: 9NJ5
Lat/Long: 39-40-48.4090N 075-15-08.6680W
39-40.806817N 075-15.144467W
39.6801136,-75.2524078
(estimated)
Elevation: 80 ft. / 24 m (estimated)
Variation: 11W (1985)
From city: 1 mile SE of HARRISONVILLE, NJ
Time zone: UTC -4 (UTC -5 during Standard Time)
Zip code: 08039

Airport Operations

Airport use: Private use. Permission required prior to landing
Activation date: 02/1978
Control tower: no
ARTCC: NEW YORK CENTER
FSS: MILLVILLE FLIGHT SERVICE STATION
Attendance: UNATNDD
Wind indicator: yes
Segmented circle: no

Airport Communications

WX ASOS at PHL (12 nm N): PHONE 215-492-9617
WX ASOS at ILG (16 nm W): PHONE 302-328-1536

Nearby radio navigation aids

VOR radial/distance  VOR name  Freq  Var
OODr052/3.5WOODSTOWN VORTAC112.8010W
VCNr313/15.7CEDAR LAKE VOR/DME115.2010W
DQOr100/16.4DUPONT VORTAC114.0010W
MXEr136/24.0MODENA VORTAC113.2009W
ENOr033/29.5SMYRNA VORTAC111.4009W
ACYr303/34.0ATLANTIC CITY VORTAC117.1510W
PTWr165/35.5POTTSTOWN VORTAC116.5009W
GXUr249/36.1MC GUIRE VORTAC110.6012W
ARDr215/37.9YARDLEY VOR/DME108.2010W
CYNr268/38.7COYLE VORTAC113.4010W

 
NDB name  Hdg/Dist  Freq  Var  ID
RAINBOW352/16.636311WRNB .-. -. -...
AMBLER189/26.827512WING .. -. --.

Airport Services

Runway Information

Runway 11/29

Dimensions: 1350 x 150 ft. / 411 x 46 m
Surface: turf
RUNWAY 11  RUNWAY 29
Traffic pattern: leftleft

Airport Ownership and Management from official FAA records

Ownership: Privately-owned
Owner: GEORGE R. STALLONE
PO BOX 4 HARRISONVILLE-FERREL
HARRISONVILLE, NJ 08039
Phone 609-478-2510
Manager: GEORGE R. STALLONE
PO BOX 4 HARRISONVILLE-FERREL
HARRISONVILLE, NJ 08039
Phone 609-478-2510

Airport Operational Statistics

Aircraft based on the field: 1
Single engine airplanes: 1
    

Additional Remarks

FOR CD CTC PHILADELPHIA APCH AT 800-354-9884.

Instrument Procedures

There are no published instrument procedures at 9NJ5.

Some nearby airports with instrument procedures:

7N7 - Spitfire Aerodrome (7 nm NW)
17N - Cross Keys Airport (10 nm E)
KPHL - Philadelphia International Airport (12 nm N)
29N - Kroelinger Airport (13 nm SE)
19N - Camden County Airport (15 nm NE)
KILG - New Castle Airport (16 nm W)
 
Loc | Ops | Rwys | IFR | FBO | Links
Com | Nav | Svcs | Stats | Notes
Area around 9NJ5 (Stallone Airport)
 
Road maps at: MapQuest Bing Google
 
Aerial photo
No photo
 
Sectional chart

 
Airport distance calculator
Flying to Stallone Airport? Find the distance to fly.

From to 9NJ5

Sunrise and sunset
Times for 03-Aug-2020
 Local
(UTC-4)
 Zulu
(UTC)
Morning civil twilight05:3409:34
Sunrise06:0410:04
Sunset20:1000:10
Evening civil twilight20:4000:40

Current date and time
Zulu (UTC)  03-Aug-2020 13:12:49
Local (UTC-4)  03-Aug-2020 09:12:49
 
METAR
KPHL 
11nm N 
031254Z 28008KT 10SM FEW050 BKN200 BKN260 27/17 A3005 RMK AO2 SLP174 T02670167
KILG 
16nm W 
031251Z 30004KT 10SM CLR 27/17 A3006 RMK AO2 SLP176 T02670167
KMIV 
20nm SE 
031254Z AUTO 26004KT 10SM CLR 27/20 A3005 RMK AO2 SLP173 T02670200
TAF
KPHL 
11nm N 
031122Z 0312/0418 25008KT P6SM SCT080 FM031600 23008KT P6SM SCT050 BKN100 FM032100 22008KT P6SM VCSH BKN080 FM032300 21008KT 6SM SHRA VCTS OVC070CB FM040500 18006KT 5SM SHRA OVC050 FM040900 16006KT 3SM SHRA OVC020 FM041500 10024G38KT 3SM +SHRA OVC015 TEMPO 0415/0417 2SM +SHRA
KILG 
16nm W 
031122Z 0312/0412 VRB05KT P6SM BKN150 FM031600 23008KT P6SM SCT050 BKN100 FM032100 20007KT 6SM -SHRA VCTS BKN050CB FM040300 17005KT 6SM SHRA OVC050 FM040700 16006KT 3SM SHRA OVC020
NOTAMs
Click for the latest NOTAMs
NOTAMs are issued by the DoD/FAA and will open in a separate window not controlled by AirNav.

 

 
 

Would you like to see your business listed on this page?

 If your business provides an interesting product or service to pilots, flight crews, aircraft, or users of the Stallone Airport, you should consider listing it here.  To start the listing process, click on the button below
 
Add a business
 

Other Pages about Stallone Airport

Update a link
 
Copyright © AirNav, LLC. All rights reserved. Privacy Policy  Contact